Location: Bern�tre
(50.1974°N, 2.0915°E)
Time: 09:14:59
(UTC+00:00)

Cosmos 1844 Rocket - Pass Details

Date: 18 September 2020
Orbit: 823 x 846 km, 71.0° (Epoch: 27 October)

Event Time Altitude Azimuth Distance (km) Brightness Sun altitude
Rises 21:22:44 0° 235° (SW) 3,353 5.9 -30.0°
Reaches altitude 10° 21:25:20 10° 243° (WSW) 2,425 5.2 -30.3°
Maximum altitude 21:30:28 37° 311° (NW) 1,263 4.0 -30.9°
Drops below altitude 10° 21:35:39 10° 19° (NNE) 2,448 5.4 -31.4°
Sets 21:38:18 0° 27° (NNE) 3,389 6.1 -31.7°
